#timestamp,LO_Frequency,Hit,StdDev 
1504000815.5,286046997.8,N,1.1
1504000835.3,286046997.3,N,1.2
1504000855.1,286046997.5,N,1.2
1504000875.9,286046997.3,N,1.2
1504000895.7,286046994.9,Y,0.0
1504000915.6,286046999.4,P,0.7
1504000935.4,286046999.1,N,0.6
1504000955.2,286046998.9,N,0.5
1504000975.1,286046999.4,N,0.5
1504000976.0,286046999.4,N,0.5
1504000995.8,286046996.7,Y,0.0
1504001015.6,286047000.7,P,0.8
1504001035.5,286046998.5,N,0.9
1504001055.3,286046998.3,N,0.9
1504001075.1,286046998.2,N,0.9
1504001095.9,286047001.1,N,1.2
1504001115.7,286046998.4,N,1.1
1504001135.6,286046999.5,N,1.1
1504001155.4,286046999.6,N,1.0
1504001175.2,286046999.3,N,1.0
1504001195.1,286046998.5,N,0.9
1504001196.0,286046998.5,N,0.9
1504001215.8,286046998.2,N,0.9
1504001235.6,286046999.0,N,0.9
1504001255.5,286046999.6,N,0.9
1504001275.3,286046999.4,N,0.8
1504001295.1,286046998.8,N,0.8
1504001315.9,286046998.9,N,0.8
1504001335.7,286046998.9,N,0.8
1504001355.6,286046998.7,N,0.8
1504001375.4,286046999.1,N,0.7
1504001395.2,286046996.5,Y,0.0
1504001415.1,286046998.6,P,0.2
1504001416.0,286046998.6,P,0.2
1504001435.8,286046999.1,P,0.2
1504001455.7,286047000.5,N,0.7
1504001475.5,286046998.5,N,0.7
1504001495.3,286046998.3,N,0.7
1504001515.2,286046999.5,N,0.7
1504001535.9,286046997.1,Y,0.0
1504001555.7,286046996.6,P,1.2
1504001575.6,286046999.1,N,1.2
1504001595.4,286046999.6,N,1.2
1504001615.2,286046998.4,N,1.0
1504001635.1,286046998.7,N,1.0
1504001636.0,286046998.7,N,0.9
1504001655.8,286046998.6,N,0.8
1504001675.7,286047000.8,N,1.0
1504001695.5,286046998.6,N,1.0
1504001715.3,286047000.8,N,1.1
1504001735.2,286046998.2,N,1.1
1504001755.0,286047000.0,N,1.1
1504001755.9,286047000.0,N,1.1
1504001775.7,286047001.1,N,1.1
1504001795.6,286047000.8,N,1.2
1504001815.4,286046998.4,N,1.2
1504001835.3,286047001.1,N,1.2
1504001855.1,286047001.0,N,1.2
1504001875.8,286046999.9,N,1.2
1504001895.7,286047000.3,N,1.2
1504001915.5,286047000.3,N,1.2
1504001935.3,286047000.7,N,1.2
1504001955.2,286046998.1,N,1.2
1504001975.0,286047000.0,N,1.2
1504001975.9,286047000.0,N,1.1
1504001995.8,286047001.0,N,1.2
1504002015.6,286047000.3,N,1.1
1504002035.4,286047002.7,N,1.3
1504002055.3,286047002.8,N,1.3
1504002075.1,286047002.6,N,1.4
1504002095.8,286047002.3,N,1.3
1504002115.7,286047002.7,N,1.4
1504002135.5,286047002.3,N,1.4
1504002155.4,286047002.0,N,1.4
1504002175.2,286047001.8,N,1.4
1504002195.0,286047002.5,N,1.4
1504002195.9,286047002.5,N,1.4
1504002215.8,286047001.8,N,1.4
1504002235.6,286047001.9,N,1.3
1504002255.4,286047001.6,N,1.3
1504002275.3,286047002.1,N,1.2
1504002295.1,286047001.6,N,1.2
1504002315.9,286047001.4,N,1.2
1504002335.7,286047003.0,N,1.2
1504002355.5,286047002.9,N,1.3
1504002375.4,286047005.9,Y,0.0
1504002395.2,286047001.3,P,0.0
1504002415.1,286047004.2,P,1.3
1504002416.0,286047004.2,P,1.4
1504002435.8,286047003.5,N,1.3
1504002455.6,286047001.7,N,1.3
1504002475.5,286047002.5,N,1.2
1504002495.3,286047002.5,N,1.1
1504002515.1,286047001.8,N,1.1
1504002535.9,286047003.2,N,1.0
1504002555.7,286047004.0,Y,0.0
1504002575.6,286047002.7,P,0.0
1504002595.4,286047002.1,P,0.3
1504002615.2,286047000.9,P,0.7
1504002635.1,286047002.3,Y,0.0
1504002636.0,286047002.3,P,0.1
1504002655.8,286046999.1,P,1.5
1504002675.6,286046999.4,N,1.5
1504002695.5,286046999.3,N,1.4
1504002715.3,286046999.1,N,1.4
1504002735.1,286046996.5,N,1.8
1504002755.9,286046998.7,N,1.7
1504002775.7,286046998.2,N,1.7
1504002795.6,286046998.4,N,1.6
1504002815.4,286046999.2,N,1.6
1504002835.2,286046998.7,N,1.5
1504002855.1,286046999.0,N,1.5
1504002856.0,286046999.0,N,1.4
1504002875.8,286046998.4,N,1.4
1504002895.7,286046998.5,N,1.3
1504002915.5,286046998.7,N,1.3
1504002935.3,286046998.4,N,1.3
1504002955.2,286046998.3,N,1.2
1504002975.9,286046998.2,N,1.2
1504002995.7,286047001.2,N,1.3
1504003015.6,286047000.1,N,1.3
1504003035.4,286046999.9,N,1.3
1504003055.2,286047000.3,N,1.3
1504003075.1,286046999.9,N,1.2
1504003076.0,286046999.9,N,1.2
1504003095.8,286046998.2,N,1.2
1504003115.7,286047000.4,N,1.2
1504003135.5,286047001.0,N,1.2
1504003155.3,286047000.6,N,1.2
1504003175.2,286046999.9,N,1.1
1504003195.0,286047000.0,N,1.0
1504003195.9,286047000.0,N,1.0
1504003215.7,286047001.0,N,1.1
1504003235.6,286046999.9,N,1.1
1504003255.4,286046999.8,N,1.1
1504003275.3,286047001.0,N,1.0
1504003295.1,286047000.2,N,1.0
1504003296.0,286047000.2,N,0.9
1504003315.8,286047000.0,N,0.9
1504003335.7,286047002.5,N,1.0
1504003355.5,286047002.5,N,1.1
1504003375.3,286047000.2,N,1.1
1504003395.2,286047002.6,N,1.2
1504003415.0,286046999.8,N,1.2
1504003415.9,286046999.8,N,1.1
1504003435.8,286047002.8,N,1.2
1504003455.6,286047002.3,N,1.2
1504003475.4,286047002.6,N,1.2
1504003495.3,286047002.2,N,1.1
1504003515.1,286046999.7,N,1.1
1504003535.8,286047000.2,N,1.1
1504003555.7,286047000.6,N,1.1
1504003575.5,286047000.2,N,1.1
1504003595.3,286047000.5,N,1.1
1504003615.2,286047000.2,N,1.1
1504003635.0,286047000.1,N,1.0
1504003635.9,286047000.1,N,1.0
1504003655.8,286047001.7,N,1.0
1504003675.6,286047004.4,Y,0.0
1504003695.4,286047002.6,P,0.9
1504003715.3,286047000.2,N,1.0
1504003735.1,286047000.6,N,0.9
1504003755.8,286047000.1,N,0.9
1504003775.7,286047002.4,N,1.0
1504003795.5,286047002.2,N,1.0
1504003815.4,286047002.1,N,1.0
1504003835.2,286047011.9,Y,0.0
1504003855.0,286047000.9,P,0.2
1504003855.9,286047000.9,P,0.2
1504003875.8,286046999.8,N,0.6
1504003895.6,286047002.1,Y,0.0
1504003915.4,286047000.2,P,0.3
1504003935.3,286047000.1,N,0.3
1504003955.1,286047002.8,P,1.1
1504003975.9,286047002.3,N,1.1
1504003995.7,286047002.1,N,1.1
1504004015.5,286046999.7,N,1.1
1504004035.4,286047002.6,N,1.2
1504004055.2,286046999.7,N,1.2
1504004075.0,286047002.7,N,1.2
1504004075.9,286047002.7,N,1.3
1504004095.8,286047002.3,N,1.2
1504004115.6,286046999.7,N,1.3
1504004135.4,286047002.5,N,1.3
1504004155.3,286046999.8,N,1.3
1504004175.1,286046999.8,N,1.3
1504004195.9,286047002.3,N,1.3
1504004215.7,286047000.3,N,1.3
1504004235.5,286047000.2,N,1.3
1504004255.4,286046999.8,N,1.3
1504004275.2,286047001.0,N,1.2
1504004295.0,286047001.1,N,1.2
1504004295.9,286047001.1,N,1.2
1504004315.8,286047000.8,N,1.2
1504004335.6,286047000.5,N,1.1
1504004355.4,286047000.6,N,1.1
1504004375.3,286047000.5,N,1.1
1504004395.1,286047000.6,N,1.1
